GW5803 Weather Reports


time (UTC)temp
F
wind
direction
speed
knots
gust
knots
rain 1hr
in
rain 24hr
in
rain mn
in
humidity
%
barometer
mb
20260504014430 46 61 0.0 0.0 0.00 0.00 0.00 76 1016.7
20260504013927 46 62 0.0 0.0 0.00 0.00 0.00 79 1016.6
20260504013426 46 62 0.0 0.0 0.00 0.00 0.00 75 1016.8
20260504012926 46 62 0.0 0.0 0.00 0.00 0.00 77 1016.9
20260504012425 47 64 0.0 0.0 0.00 0.00 0.00 78 1016.9
20260504011922 48 63 0.0 0.0 0.00 0.00 0.00 71 1016.8
20260504011419 49 64 0.0 0.0 0.00 0.00 0.00 66 1016.9
20260504010914 49 64 0.0 0.0 0.00 0.00 0.00 64 1016.9
20260504010411 49 64 0.0 0.0 0.00 0.00 0.00 65 1016.8
20260504005907 50 64 0.0 0.0 0.00 0.00 0.00 66 1016.8
20260504005403 50 65 0.0 0.0 0.00 0.00 0.00 68 1016.8
20260504004901 51 64 0.0 0.0 0.00 0.00 0.00 68 1016.5
20260504004359 51 64 0.0 0.0 0.00 0.00 0.00 59 1016.6
20260504003855 52 64 0.0 0.0 0.00 0.00 0.00 58 1016.6
20260504003352 53 64 0.0 0.0 0.00 0.00 0.00 62 1016.6
20260504002849 53 64 0.0 0.0 0.00 0.00 0.00 57 1016.7
20260504002346 54 64 0.0 0.0 0.00 0.00 0.00 57 1016.4
20260504001843 55 64 0.0 0.0 0.00 0.00 0.00 54 1016.5
20260504001340 56 64 0.0 0.0 0.00 0.00 0.00 54 1016.4
20260504000837 57 64 0.0 0.0 0.00 0.00 0.00 54 1016.4
20260504000334 58 49 0.0 0.0 0.00 0.00 0.00 48 1016.4
20260503235832 58 61 0.0 0.0 0.00 0.00 0.00 52 1016.3
20260503235329 59 47 0.0 0.9 0.00 0.00 0.00 48 1016.7
20260503234826 59 45 0.0 0.9 0.00 0.00 0.00 48 1016.6
20260503234324 60 21 0.9 1.7 0.00 0.00 0.00 46 1016.6
20260503233822 60 23 0.9 2.6 0.00 0.00 0.00 48 1016.7
20260503233317 60 26 0.9 0.9 0.00 0.00 0.00 47 1016.5
20260503232814 60 358 2.6 2.6 0.00 0.00 0.00 44 1016.6
20260503232312 61 61 0.9 1.7 0.00 0.00 0.00 46 1016.8
20260503231809 61 345 1.7 1.7 0.00 0.00 0.00 44 1016.8
20260503231306 61 30 3.5 6.1 0.00 0.00 0.00 43 1016.9
20260503230802 61 324 2.6 4.3 0.00 0.00 0.00 41 1016.9
20260503230259 61 327 2.6 5.2 0.00 0.00 0.00 43 1016.9
20260503225757 62 23 0.0 1.7 0.00 0.00 0.00 46 1016.8
20260503225252 62 346 0.9 1.7 0.00 0.00 0.00 41 1016.9
20260503224749 62 22 0.0 1.7 0.00 0.00 0.00 40 1017.0
20260503224247 63 218 0.9 1.7 0.00 0.00 0.00 41 1017.0
20260503223744 63 14 2.6 2.6 0.00 0.00 0.00 40 1016.9
20260503223241 63 26 2.6 2.6 0.00 0.00 0.00 39 1017.0
20260503222737 64 268 0.9 4.3 0.00 0.00 0.00 44 1017.0
20260503222235 64 34 0.0 0.9 0.00 0.00 0.00 41 1016.9
20260503221734 64 2 1.7 2.6 0.00 0.00 0.00 39 1017.0
20260503221231 65 356 1.7 1.7 0.00 0.00 0.00 46 1017.0
20260503220727 64 344 0.9 2.6 0.00 0.00 0.00 42 1017.0
20260503220224 64 333 2.6 5.2 0.00 0.00 0.00 45 1017.2
20260503215721 64 310 0.9 4.3 0.00 0.00 0.00 48 1017.2
20260503215218 64 19 2.6 4.3 0.00 0.00 0.00 45 1017.1
20260503214716 64 352 2.6 4.3 0.00 0.00 0.00 45 1017.3
20260503214212 66 151 1.7 2.6 0.00 0.00 0.00 45 1017.2
20260503213711 64 317 0.9 5.2 0.00 0.00 0.00 48 1017.3
20260503213208 65 216 1.7 2.6 0.00 0.00 0.00 44 1017.3
20260503212705 63 340 2.6 4.3 0.00 0.00 0.00 43 1017.5
20260503212202 64 329 1.7 6.1 0.00 0.00 0.00 48 1017.4
20260503211700 66 262 1.7 4.3 0.00 0.00 0.00 48 1017.4
20260503211155 65 5 1.7 4.3 0.00 0.00 0.00 43 1017.5
20260503210652 66 252 1.7 2.6 0.00 0.00 0.00 43 1017.5
20260503210148 66 343 0.9 1.7 0.00 0.00 0.00 45 1017.4
20260503205644 64 108 1.7 1.7 0.00 0.00 0.00 43 1017.4
20260503205140 63 14 2.6 5.2 0.00 0.00 0.00 44 1017.6
20260503204637 63 328 2.6 7.8 0.00 0.00 0.00 47 1017.6
20260503204135 64 334 2.6 6.1 0.00 0.00 0.00 43 1017.7
20260503203632 63 314 3.5 6.1 0.00 0.00 0.00 48 1017.7
20260503203129 64 349 2.6 4.3 0.00 0.00 0.00 44 1017.9
20260503202626 65 8 4.3 6.1 0.00 0.00 0.00 43 1018.1
20260503202124 65 359 0.9 1.7 0.00 0.00 0.00 45 1018.1
20260503201622 64 359 1.7 1.7 0.00 0.00 0.00 44 1018.1
20260503201119 65 13 0.9 2.6 0.00 0.00 0.00 46 1018.3
20260503200615 63 267 1.7 1.7 0.00 0.00 0.00 46 1018.3
20260503200112 65 13 3.5 6.1 0.00 0.00 0.00 43 1018.4
20260503195609 64 341 3.5 6.1 0.00 0.00 0.00 44 1018.6
20260503195106 65 333 0.9 2.6 0.00 0.00 0.00 55 1018.7
20260503194604 65 0 2.6 6.1 0.00 0.00 0.00 48 1018.6
20260503194103 64 23 0.0 0.9 0.00 0.00 0.00 51 1018.8
20260503193600 64 338 1.7 4.3 0.00 0.00 0.00 46 1018.6
20260503193056 64 327 2.6 4.3 0.00 0.00 0.00 44 1018.9
20260503192552 63 111 0.9 4.3 0.00 0.00 0.00 43 1018.9
20260503192048 63 354 2.6 8.7 0.00 0.00 0.00 45 1018.8
20260503191545 64 44 1.7 6.1 0.00 0.00 0.00 44 1018.9
20260503191042 63 40 0.0 1.7 0.00 0.00 0.00 52 1019.0
20260503190539 64 301 6.1 8.7 0.00 0.00 0.00 48 1019.1
20260503190036 64 311 1.7 2.6 0.00 0.00 0.00 50 1019.2
20260503185533 64 225 3.5 4.3 0.00 0.00 0.00 42 1019.1
20260503185032 63 231 0.9 4.3 0.00 0.00 0.00 47 1019.2
20260503184529 63 275 1.7 2.6 0.00 0.00 0.00 44 1019.3
20260503184025 62 356 1.7 6.1 0.00 0.00 0.00 43 1019.4
20260503183522 63 9 1.7 4.3 0.00 0.00 0.00 45 1019.5
20260503183019 61 34 0.9 4.3 0.00 0.00 0.00 51 1019.4
20260503182518 61 340 6.1 8.7 0.00 0.00 0.00 47 1019.5
20260503182015 62 65 0.0 5.2 0.00 0.00 0.00 39 1019.7
20260503181512 61 156 1.7 4.3 0.00 0.00 0.00 41 1019.7
20260503181008 60 30 2.6 5.2 0.00 0.00 0.00 45 1019.8
20260503180506 62 58 0.0 2.6 0.00 0.00 0.00 42 1019.8
20260503180002 61 263 2.6 2.6 0.00 0.00 0.00 45 1019.9
20260503175500 59 217 3.5 7.0 0.00 0.00 0.00 51 1019.9
20260503174956 59 292 0.9 2.6 0.00 0.00 0.00 50 1020.1
20260503174454 58 23 0.9 6.1 0.00 0.00 0.00 55 1020.2
20260503173949 59 345 0.9 1.7 0.00 0.00 0.00 51 1020.4
20260503173445 58 326 4.3 6.1 0.00 0.00 0.00 53 1020.4
20260503172942 60 2 0.9 1.7 0.00 0.00 0.00 51 1020.2
20260503172440 59 232 0.9 2.6 0.00 0.00 0.00 60 1020.5
20260503171936 60 17 1.7 2.6 0.00 0.00 0.00 55 1020.4
20260503171433 59 3 0.9 1.7 0.00 0.00 0.00 55 1020.6
20260503170931 56 196 0.9 0.9 0.00 0.00 0.00 58 1020.5
20260503170426 57 20 3.5 4.3 0.00 0.00 0.00 58 1020.8
20260503150819 52 95 2.6 2.6 0.00 0.00 0.00 61 1021.6
20260503150315 53 18 1.7 5.2 0.00 0.00 0.00 67 1021.3
20260503140239 50 46 0.9 2.6 0.00 0.00 0.00 68 1021.3
20260503131209 47 46 2.6 6.1 0.00 0.00 0.00 77 1021.0
20260503130707 47 34 3.5 4.3 0.00 0.00 0.00 76 1021.2
20260503130204 46 61 2.6 4.3 0.00 0.00 0.00 77 1020.9
20260503120129 41 58 0.0 0.0 0.00 0.00 0.00 95 1020.6
20260503110557 38 19 0.0 0.9 0.00 0.00 0.00 98 1019.8
20260503090444 39 19 0.9 2.6 0.00 0.00 0.00 96 1018.9
20260503081410 39 36 0.0 0.0 0.00 0.00 0.00 95 1018.6
20260503080907 39 42 0.0 0.0 0.00 0.00 0.00 95 1018.7
20260503080404 39 42 0.0 0.0 0.00 0.00 0.00 94 1018.6
20260503072840 40 34 0.0 0.0 0.00 0.00 0.00 94 1018.4
20260503072337 40 31 0.0 0.0 0.00 0.00 0.00 94 1018.3
20260503071833 41 36 0.0 0.0 0.00 0.00 0.00 94 1018.2
20260503071331 41 17 0.0 0.0 0.00 0.00 0.00 94 1018.2
20260503070827 41 31 0.0 0.0 0.00 0.00 0.00 94 1018.3
20260503070325 41 29 0.9 1.7 0.00 0.00 0.00 95 1018.1
20260503060250 40 31 0.0 0.0 0.00 0.00 0.00 97 1018.1
20260503054737 41 34 0.0 0.0 0.00 0.00 0.00 97 1018.2
20260503054234 41 33 0.0 0.0 0.00 0.00 0.00 97 1018.1
20260503053731 40 33 0.0 0.0 0.00 0.00 0.00 96 1017.9
20260503053230 40 37 0.0 0.0 0.00 0.00 0.00 96 1018.0
20260503052726 41 36 0.0 0.0 0.00 0.00 0.00 96 1018.1
20260503052223 41 37 0.0 0.0 0.00 0.00 0.00 95 1017.7
20260503051718 42 32 0.0 0.0 0.00 0.00 0.00 95 1018.0
20260503051216 42 8 0.9 1.7 0.00 0.00 0.00 95 1018.0
20260503050712 42 32 0.0 0.9 0.00 0.00 0.00 95 1018.0
20260503050209 42 25 0.9 0.9 0.00 0.00 0.00 94 1018.0
20260503045706 42 329 0.9 1.7 0.00 0.00 0.00 94 1017.9
20260503045204 42 14 0.0 0.9 0.00 0.00 0.00 94 1017.7
20260503044700 42 29 0.0 0.0 0.00 0.00 0.00 94 1018.0
20260503044157 42 344 0.0 0.9 0.00 0.00 0.00 93 1018.1
20260503043654 42 27 0.0 0.0 0.00 0.00 0.00 93 1017.9
20260503043152 42 15 0.9 0.9 0.00 0.00 0.00 93 1017.9
20260503042647 42 15 0.0 2.6 0.00 0.00 0.00 93 1017.9
20260503042144 43 31 0.0 0.9 0.00 0.00 0.00 92 1018.0
20260503041640 43 22 0.0 2.6 0.00 0.00 0.00 92 1018.1
20260503041138 43 347 1.7 2.6 0.00 0.00 0.00 91 1017.7
20260503040636 43 4 0.0 1.7 0.00 0.00 0.00 91 1017.9
20260503040133 43 12 1.7 4.3 0.00 0.00 0.00 91 1017.7
20260503035629 43 9 0.9 1.7 0.00 0.00 0.00 90 1017.6
20260503035127 43 337 2.6 2.6 0.00 0.00 0.00 90 1017.6
20260503034624 43 0 0.0 1.7 0.00 0.00 0.00 90 1017.5
20260503034121 43 348 0.9 1.7 0.00 0.00 0.00 90 1017.5
20260503033618 43 28 0.0 1.7 0.00 0.00 0.00 90 1017.6
20260503033116 43 25 0.0 0.0 0.00 0.00 0.00 91 1017.4
20260503032614 42 27 0.0 0.0 0.00 0.00 0.00 91 1017.5
20260503032113 42 28 0.0 0.0 0.00 0.00 0.00 90 1017.5
20260503031610 43 28 0.0 0.0 0.00 0.00 0.00 90 1017.4
20260503031107 42 27 0.0 0.0 0.00 0.00 0.00 90 1017.6
20260503030603 43 23 0.0 0.0 0.00 0.00 0.00 89 1017.5
20260503030100 44 21 0.0 0.0 0.00 0.00 0.00 88 1017.7
20260503025556 44 29 0.0 0.0 0.00 0.00 0.00 86 1017.5
20260503025054 45 32 0.0 0.0 0.00 0.00 0.00 85 1017.4
20260503024550 45 25 0.0 0.9 0.00 0.00 0.00 84 1017.4
20260503024048 45 34 0.0 0.0 0.00 0.00 0.00 83 1017.5
20260503023544 46 35 0.0 0.9 0.00 0.00 0.00 83 1017.4
20260503023042 46 48 0.0 0.0 0.00 0.00 0.00 82 1017.1
20260503022538 46 51 0.0 0.9 0.00 0.00 0.00 81 1017.1
20260503022032 46 37 0.9 0.9 0.00 0.00 0.00 81 1017.0
20260503021530 46 55 0.9 0.9 0.00 0.00 0.00 81 1017.2
20260503021026 47 44 1.7 4.3 0.00 0.00 0.00 81 1017.1
20260503020524 47 40 2.6 4.3 0.00 0.00 0.00 79 1017.2
20260503020021 48 24 1.7 5.2 0.00 0.00 0.00 79 1017.1
20260503015517 48 35 4.3 7.0 0.00 0.00 0.00 77 1016.9
20260503015014 48 359 2.6 7.0 0.00 0.00 0.00 77 1017.0